Flag for Spain Weather past 2 weeks in Madrid, Spain

Now
44 °F

Passing clouds.


Feels Like: 42 °F
Forecast: 51 / 70 °F
Wind: 5 mph from Northeast

Location: Madrid / Barajas

Current Time: Apr 28, 2015 at 6:08:48 AM

Latest Report: Apr 28, 2015 at 5:00 AM


Visibility: 19 mi

Pressure: 30.11 "Hg

Humidity: 90%

Dew point: 41 °F

Location of MadridLocation

Historic Weather in Madrid — Graph

°F

Madrid temperature yesterday

Maximum temperature yesterday: 64 °F (at 7:00 PM)
Minimum temperature yesterday: 49 °F (at 5:00 AM)
Average temperature yesterday: 56 °F

Past Weeks' High & Low Weather Summary

 TemperatureHumidityPressure
High76 °F (Apr 23, 6:00 PM)95% (Apr 16, 2:00 AM)30.33 "Hg (Apr 16, 2:00 AM)
Low38 °F (Apr 19, 8:00 AM)22% (Apr 23, 6:00 PM)29.67 "Hg (Apr 26, 6:00 PM)
Average58 °F61%30.03 "Hg
* Reported Apr 13 4:00 AM — Apr 28 4:00 AM, Madrid, Weather by CustomWeather, © 2015

Note: Actual official high and low records may vary slightly from our data, if they occured in-between our weather recording intervals... More about our weather records

Advertising

Madrid weather history for previous 24 hours

 ConditionsComfort  
Time TempWeatherWind HumidityBarometerVisibility
4:00 AM
Tue, Apr 28
45 °FPassing clouds.No wind87%30.10 "Hg19 mi
3:00 AM47 °FPassing clouds.No wind83%30.09 "Hg19 mi
2:00 AM49 °FCool.No wind76%30.08 "Hg19 mi
1:00 AM50 °FCool.1 mph74%30.07 "Hg19 mi
12:00 AM52 °FPassing clouds.3 mph70%30.05 "Hg19 mi
11:00 PM
Mon, Apr 27
54 °FPassing clouds.7 mph62%30.03 "Hg19 mi
10:00 PM57 °FPassing clouds.9 mph55%29.98 "Hg19 mi
9:00 PM59 °FPartly sunny.15 mph49%29.95 "Hg19 mi
8:00 PM63 °FPartly sunny.9 mph43%29.91 "Hg19 mi
7:00 PM64 °FOvercast.9 mph43%29.90 "Hg19 mi
6:00 PM64 °FOvercast.12 mph44%29.90 "Hg19 mi
5:00 PM63 °FOvercast.16 mph51%29.91 "Hg19 mi
4:00 PM62 °FOvercast.16 mph46%29.92 "Hg19 mi
3:00 PM60 °FPartly sunny.15 mph48%29.92 "Hg19 mi
2:00 PM60 °FOvercast.17 mph48%29.92 "Hg19 mi
1:00 PM59 °FOvercast.15 mph50%29.92 "Hg19 mi
12:00 PM60 °FOvercast.15 mph50%29.91 "Hg19 mi
11:00 AM57 °FPartly sunny.14 mph59%29.90 "Hg19 mi
10:00 AM53 °FPartly sunny.14 mph63%29.91 "Hg19 mi
9:00 AM53 °FPartly sunny.7 mph67%29.89 "Hg19 mi
8:00 AM50 °FPartly sunny.5 mph78%29.89 "Hg16 mi
7:00 AM50 °FPassing clouds.8 mph79%29.86 "Hg19 mi
Weather by CustomWeather, © 2015

See weather overviewHow to use our weather pages